Quincy, IL

1:22 AM CDT on June 23, 2017 (GMT -0500)
Quincy Regional-Baldwin

Weather History for KUIN - April, 2011

Change the Weather History Date:

Monday, April 11, 2011

  Actual Average Record
Temperature  
Mean Temperature 58 °F 52 °F  
Max Temperature 66 °F 62 °F 90 °F (1930)
Min Temperature 50 °F 41 °F 25 °F (1957)
Degree Days  
Heating Degree Days 8 14  
Month to date heating degree days 169  
Since 1 July heating degree days 5229  
Cooling Degree Days 0 0  
Month to date cooling degree days 0  
Year to date cooling degree days 2  
Growing Degree Days 8 (Base 50)    
Moisture  
Dew Point 43 °F    
Average Humidity 59    
Maximum Humidity 80    
Minimum Humidity 40    
Precipitation  
Precipitation 0.00 in 0.12 in 4.03 in (1944)
Month to date precipitation 1.25  
Year to date precipitation 7.11  
Sea Level Pressure  
Sea Level Pressure 29.79 in    
Wind  
Wind Speed 11 mph (NW)    
Max Wind Speed 18 mph    
Max Gust Speed 24 mph    
Visibility 10 miles    
Events      
T = Trace of Precipitation, MM = Missing Value Source: NWS Daily Summary

Daily Weather History Graph

Daily Weather History Graph

Search for Another Location

Airport or City:

Trip Planner

Search our weather history database for the weather conditions in past years. The results will help you decide how hot, cold, wet, or windy it might be!

Date:

Astronomy

Apr. 11, 2011 Rise Set
Actual Time 6:33 AM CDT 7:38 PM CDT
Civil Twilight 6:05 AM CDT 8:06 PM CDT
Nautical Twilight 5:32 AM CDT 8:39 PM CDT
Astronomical Twilight 4:58 AM CDT 9:14 PM CDT
Moon 12:23 PM CDT (4/11) 2:18 AM CDT (4/11)
Length of Visible Light 14h 01m
Length of Day
13h 05m
First Quarter, 52% of the Moon is Illuminated
Apr 11
First Quarter
Apr 17
Full
Apr 24
Last Quarter
May 3
New
May 10
First Quarter

Hourly Weather History & Observations

Time (CDT) Temp. Dew Point Humidity Pressure Visibility Wind Dir Wind Speed Gust Speed Precip Events Conditions
12:54 AM 64.9 °F 45.0 °F 48% 29.67 in 10.0 mi WNW 11.5 mph - N/A   Clear
1:54 AM 60.1 °F 46.9 °F 62% 29.68 in 10.0 mi WNW 5.8 mph - N/A   Clear
2:54 AM 57.9 °F 48.0 °F 70% 29.66 in 10.0 mi WNW 6.9 mph - N/A   Clear
3:54 AM 57.9 °F 48.9 °F 72% 29.68 in 10.0 mi NNW 8.1 mph - N/A   Clear
4:54 AM 55.0 °F 48.0 °F 77% 29.70 in 10.0 mi North 8.1 mph - N/A   Clear
5:54 AM 52.0 °F 45.0 °F 77% 29.71 in 10.0 mi NNW 9.2 mph - N/A   Clear
6:54 AM 51.1 °F 45.0 °F 80% 29.74 in 10.0 mi NNW 9.2 mph - N/A   Clear
7:54 AM 51.1 °F 44.1 °F 77% 29.78 in 10.0 mi NNW 8.1 mph - N/A   Clear
8:54 AM 51.1 °F 43.0 °F 74% 29.77 in 10.0 mi NNW 9.2 mph - N/A   Clear
9:54 AM 53.1 °F 44.1 °F 71% 29.81 in 10.0 mi WNW 9.2 mph - N/A   Partly Cloudy
10:14 AM 53.6 °F 44.6 °F 72% 29.82 in 10.0 mi West 11.5 mph - N/A   Mostly Cloudy
10:54 AM 55.0 °F 44.1 °F 67% 29.82 in 10.0 mi WNW 11.5 mph - N/A   Mostly Cloudy
11:02 AM 55.4 °F 44.6 °F 67% 29.83 in 10.0 mi NW 6.9 mph - N/A   Partly Cloudy
11:54 AM 57.0 °F 44.1 °F 62% 29.81 in 10.0 mi WNW 15.0 mph 23.0 mph N/A   Partly Cloudy
12:54 PM 61.0 °F 45.0 °F 56% 29.79 in 10.0 mi NNW 12.7 mph 18.4 mph N/A   Clear
1:54 PM 62.6 °F 44.6 °F 52% 29.79 in 10.0 mi NNW 12.7 mph - N/A   Clear
2:54 PM 64.9 °F 46.0 °F 50% 29.78 in 10.0 mi NW 18.4 mph 21.9 mph N/A   Partly Cloudy
3:54 PM 63.0 °F 44.1 °F 50% 29.78 in 10.0 mi NNW 17.3 mph - N/A   Partly Cloudy
4:54 PM 64.9 °F 44.1 °F 47% 29.80 in 10.0 mi NW 18.4 mph 24.2 mph N/A   Mostly Cloudy
5:54 PM 64.0 °F 41.0 °F 43% 29.83 in 10.0 mi NW 18.4 mph 21.9 mph N/A   Scattered Clouds
6:54 PM 64.0 °F 39.0 °F 40% 29.84 in 10.0 mi NNW 17.3 mph - N/A   Mostly Cloudy
7:54 PM 60.1 °F 36.0 °F 41% 29.87 in 10.0 mi NNW 11.5 mph - N/A   Clear
8:54 PM 57.0 °F 34.0 °F 42% 29.89 in 10.0 mi NW 10.4 mph - N/A   Clear
9:54 PM 55.9 °F 33.1 °F 42% 29.91 in 10.0 mi NNW 12.7 mph - N/A   Clear
10:54 PM 54.0 °F 33.1 °F 45% 29.92 in 10.0 mi NNW 10.4 mph - N/A   Clear
11:54 PM 50.0 °F 34.0 °F 54% 29.93 in 10.0 mi NW 8.1 mph - N/A   Clear